Simultaneous Nadir Overpasses (SNOs) Predictions

Prediction of SNOs between GOES-16 and AQUA Satellite Orbit:

Table of predicted SNOs for the next 14.0 days since TLE Epoch: 8/28/2021
Index Date Time (GOES-16) GOES-16 Lat,Lon AQUA Lat,Lon Distance(km) Time Diff (sec)
1 08/29/2021 06:23:23 -0.13, -75.21 -0.70, -72.41 317.79 80
2 08/29/2021 18:44:48 0.13, -75.22 -0.39, -77.61 272.24 80
3 08/31/2021 18:35:18 0.14, -75.23 0.28, -74.66 65.15 80
4 09/02/2021 18:23:07 0.15, -75.25 0.89, -71.70 402.83 80
5 09/03/2021 06:44:23 -0.15, -75.25 0.17, -76.87 183.07 80
6 09/05/2021 06:29:32 -0.15, -75.28 -0.44, -73.91 155.25 80
7 09/05/2021 18:50:57 0.16, -75.28 -0.64, -79.11 434.62 80
8 09/07/2021 06:17:21 -0.16, -75.30 -1.06, -70.95 494.27 80
9 09/07/2021 18:38:46 0.16, -75.31 -0.01, -76.15 95.33 80
10 09/09/2021 18:29:15 0.16, -75.35 0.62, -73.20 244.53 80
11 09/10/2021 06:50:30 -0.16, -75.36 0.46, -78.36 340.54 80
